{"data":{"norad_id":68093,"intl_designator":"2026-042AA","name":"STARLINK-36251","alt_names":[],"object_type":"PAYLOAD","status":"ACTIVE","operator":null,"country":"US","launch_date":"2026-03-04","launch_site_code":"AFETR","launch_vehicle":null,"mission":null,"orbit_class":"UNKNOWN","rcs_meters":null,"size_class":null,"mass_kg":null,"dimensions":null,"purposes":["comms"],"wikipedia_slug":null,"has_3d_model":false,"image_url":null,"decayed_at":null,"tle_current":{"epoch":"2026-09-19T19:21:12.522816Z","epoch_age_seconds":115508,"freshness":"FRESH","line1":"1 68093U 26042AA  26262.80639494  .00013208  00000+0  40132-3 0  9997","line2":"2 68093  53.1599 352.9285 0001318  68.8097 291.3046 15.34402561 32073","mean_motion":15.34402561,"eccentricity":0.0001318,"inclination_deg":53.1599,"raan_deg":352.9285,"arg_perigee_deg":68.8097,"mean_anomaly_deg":291.3046,"bstar":0.00040132,"rev_number":3207,"period_min":93.847601444403,"perigee_km":461.79400664557,"apogee_km":463.59725012641,"semimajor_km":6840.832628386,"source":"CELESTRAK","updated_at":"2026-09-20T09:00:43.783103Z"}}}